TimePDT,TemperatureF,Dew PointF,Humidity,Sea Level PressureIn,VisibilityMPH,Wind Direction,Wind SpeedMPH,Gust SpeedMPH,PrecipitationIn,Events,Conditions,WindDirDegrees,DateUTC
12:15 AM,46.4,14.0,27,30.32,10.0,NE,5.8,-,N/A,,Clear,40,2013-03-10 08:15:00
1:15 AM,48.2,10.4,22,30.32,10.0,ENE,5.8,-,N/A,,Clear,70,2013-03-10 09:15:00
1:35 AM,48.2,10.4,22,30.32,10.0,East,5.8,-,N/A,,Clear,90,2013-03-10 09:35:00
1:55 AM,48.2,8.6,20,30.31,10.0,East,8.1,-,N/A,,Clear,90,2013-03-10 09:55:00
3:15 AM,46.4,15.8,29,30.31,10.0,Calm,Calm,-,N/A,,Clear,0,2013-03-10 10:15:00
3:35 AM,48.2,8.6,20,30.31,10.0,Calm,Calm,-,N/A,,Clear,0,2013-03-10 10:35:00
3:55 AM,48.2,8.6,20,30.31,10.0,Calm,Calm,-,N/A,,Clear,0,2013-03-10 10:55:00
4:15 AM,46.4,10.4,23,30.30,10.0,East,4.6,-,N/A,,Clear,80,2013-03-10 11:15:00
5:15 AM,44.6,10.4,25,30.29,10.0,NE,6.9,-,N/A,,Clear,50,2013-03-10 12:15:00
5:35 AM,48.2,6.8,19,30.29,10.0,ENE,5.8,-,N/A,,Clear,60,2013-03-10 12:35:00
5:55 AM,46.4,10.4,23,30.30,10.0,Calm,Calm,-,N/A,,Clear,0,2013-03-10 12:55:00
6:15 AM,44.6,10.4,25,30.30,10.0,Calm,Calm,-,N/A,,Clear,0,2013-03-10 13:15:00
6:35 AM,41.0,14.0,33,30.31,10.0,Calm,Calm,-,N/A,,Clear,0,2013-03-10 13:35:00
6:55 AM,39.2,15.8,39,30.31,10.0,NW,3.5,-,N/A,,Clear,310,2013-03-10 13:55:00
7:15 AM,39.2,17.6,42,30.31,10.0,Calm,Calm,-,N/A,,Clear,0,2013-03-10 14:15:00
7:35 AM,37.4,19.4,48,30.32,10.0,Calm,Calm,-,N/A,,Clear,0,2013-03-10 14:35:00
7:55 AM,41.0,15.8,36,30.32,10.0,Calm,Calm,-,N/A,,Clear,0,2013-03-10 14:55:00
8:15 AM,46.4,10.4,23,30.33,10.0,Calm,Calm,-,N/A,,Clear,0,2013-03-10 15:15:00
8:35 AM,48.2,15.8,27,30.32,10.0,Calm,Calm,-,N/A,,Clear,0,2013-03-10 15:35:00
8:55 AM,46.4,19.4,34,30.32,10.0,East,3.5,-,N/A,,Clear,100,2013-03-10 15:55:00
9:15 AM,53.6,14.0,21,30.32,10.0,Calm,Calm,-,N/A,,Clear,0,2013-03-10 16:15:00
9:35 AM,51.8,15.8,24,30.32,10.0,Calm,Calm,-,N/A,,Clear,0,2013-03-10 16:35:00
9:55 AM,50.0,14.0,24,30.32,10.0,West,3.5,-,N/A,,Clear,280,2013-03-10 16:55:00
10:15 AM,50.0,23.0,35,30.32,10.0,West,6.9,-,N/A,,Clear,280,2013-03-10 17:15:00
10:35 AM,48.2,21.2,34,30.32,10.0,NW,5.8,-,N/A,,Clear,310,2013-03-10 17:35:00
10:55 AM,50.0,19.4,30,30.32,10.0,WNW,5.8,-,N/A,,Clear,300,2013-03-10 17:55:00
11:15 AM,50.0,23.0,35,30.32,10.0,WNW,6.9,-,N/A,,Clear,290,2013-03-10 18:15:00
11:35 AM,51.8,21.2,30,30.32,10.0,NNW,4.6,-,N/A,,Clear,330,2013-03-10 18:35:00
11:55 AM,53.6,19.4,26,30.32,10.0,NNW,5.8,-,N/A,,Clear,330,2013-03-10 18:55:00
12:15 PM,55.4,24.8,31,30.32,10.0,NNW,5.8,-,N/A,,Clear,340,2013-03-10 19:15:00
12:35 PM,55.4,23.0,29,30.30,10.0,Calm,Calm,-,N/A,,Clear,0,2013-03-10 19:35:00
12:55 PM,57.2,23.0,27,30.30,10.0,NNW,5.8,-,N/A,,Clear,330,2013-03-10 19:55:00
1:15 PM,57.2,23.0,27,30.29,10.0,WNW,4.6,-,N/A,,Clear,290,2013-03-10 20:15:00
1:35 PM,59.0,26.6,29,30.29,10.0,West,6.9,-,N/A,,Clear,270,2013-03-10 20:35:00
1:55 PM,59.0,28.4,31,30.28,10.0,West,3.5,-,N/A,,Clear,280,2013-03-10 20:55:00
2:15 PM,57.2,35.6,44,30.27,10.0,West,6.9,-,N/A,,Partly Cloudy,270,2013-03-10 21:15:00
2:35 PM,57.2,35.6,44,30.27,10.0,WNW,9.2,-,N/A,,Clear,290,2013-03-10 21:35:00
2:55 PM,57.2,39.2,51,30.27,10.0,West,8.1,-,N/A,,Clear,280,2013-03-10 21:55:00
3:15 PM,57.2,39.2,51,30.27,10.0,WNW,5.8,-,N/A,,Clear,300,2013-03-10 22:15:00
3:35 PM,57.2,39.2,51,30.28,10.0,West,6.9,-,N/A,,Clear,260,2013-03-10 22:35:00
3:55 PM,57.2,41.0,55,30.29,10.0,West,9.2,-,N/A,,Clear,280,2013-03-10 22:55:00
4:15 PM,55.4,41.0,58,30.29,10.0,West,6.9,-,N/A,,Clear,280,2013-03-10 23:15:00
4:35 PM,55.4,41.0,58,30.29,9.0,WNW,4.6,-,N/A,,Clear,300,2013-03-10 23:35:00
4:55 PM,55.4,41.0,58,30.28,10.0,Calm,Calm,-,N/A,,Clear,0,2013-03-10 23:55:00
5:15 PM,57.2,41.0,55,30.27,10.0,Calm,Calm,-,N/A,,Clear,0,2013-03-11 00:15:00
5:35 PM,55.4,42.8,63,30.27,10.0,Calm,Calm,-,N/A,,Clear,0,2013-03-11 00:35:00
5:55 PM,55.4,41.0,58,30.28,10.0,Calm,Calm,-,N/A,,Clear,0,2013-03-11 00:55:00
6:15 PM,55.4,41.0,58,30.28,10.0,Calm,Calm,-,N/A,,Clear,0,2013-03-11 01:15:00
6:35 PM,53.6,41.0,62,30.29,10.0,Calm,Calm,-,N/A,,Clear,0,2013-03-11 01:35:00
6:55 PM,51.8,41.0,67,30.28,10.0,Calm,Calm,-,N/A,,Clear,0,2013-03-11 01:55:00
7:15 PM,50.0,41.0,71,30.28,10.0,Calm,Calm,-,N/A,,Clear,0,2013-03-11 02:15:00
7:35 PM,50.0,41.0,71,30.29,10.0,Calm,Calm,-,N/A,,Clear,0,2013-03-11 02:35:00
8:15 PM,48.2,41.0,76,30.29,10.0,Calm,Calm,-,N/A,,Clear,0,2013-03-11 03:15:00
8:35 PM,48.2,41.0,76,30.29,10.0,Calm,Calm,-,N/A,,Clear,0,2013-03-11 03:35:00
8:55 PM,46.4,41.0,81,30.28,10.0,Calm,Calm,-,N/A,,Clear,0,2013-03-11 03:55:00
9:15 PM,48.2,41.0,76,30.29,10.0,Calm,Calm,-,N/A,,Clear,0,2013-03-11 04:15:00
9:35 PM,46.4,41.0,81,30.28,10.0,Calm,Calm,-,N/A,,Clear,0,2013-03-11 04:35:00
9:55 PM,46.4,41.0,81,30.28,10.0,Calm,Calm,-,N/A,,Clear,0,2013-03-11 04:55:00
10:15 PM,46.4,41.0,81,30.29,10.0,Calm,Calm,-,N/A,,Clear,0,2013-03-11 05:15:00
10:35 PM,46.4,41.0,81,30.29,10.0,Calm,Calm,-,N/A,,Clear,0,2013-03-11 05:35:00
10:55 PM,46.4,41.0,81,30.29,10.0,Calm,Calm,-,N/A,,Clear,0,2013-03-11 05:55:00
11:35 PM,44.6,41.0,87,30.28,10.0,Calm,Calm,-,N/A,,Clear,0,2013-03-11 06:35:00
11:55 PM,44.6,41.0,87,30.28,10.0,Calm,Calm,-,N/A,,Clear,0,2013-03-11 06:55:00
12:15 AM,44.6,41.0,87,30.28,10.0,Calm,Calm,-,N/A,,Clear,0,2013-03-11 07:15:00
12:35 AM,44.6,41.0,87,30.28,10.0,Calm,Calm,-,N/A,,Clear,0,2013-03-11 07:35:00
12:55 AM,44.6,41.0,87,30.28,10.0,Calm,Calm,-,N/A,,Clear,0,2013-03-11 07:55:00